Home > Weather > Creighton > Past weeks

Flag for Canada Weather for the Past 2 Weeks in Creighton, Saskatchewan, Canada

Now
9 °F

Light snow. Overcast.


Feels Like: -5 °F
Forecast: 7 / 26 °F
Wind: 9 mph from South

Location: The Pas

Current Time: Feb 14, 2016 at 4:43:52 AM

Latest Report: Feb 14, 2016 at 4:00 AM


Visibility: 15 mi

Pressure: 29.68 "Hg

Humidity: 78%

Dew point: 3 °F

Location of CreightonLocation

Historic Weather in Creighton — Graph

°F

Creighton Temperature Yesterday

Maximum temperature yesterday: 9 °F (at 6:00 PM)
Minimum temperature yesterday: -24 °F (at 12:00 AM)
Average temperature yesterday: -5 °F

High & Low Weather Summary for the Past Weeks

 TemperatureHumidityPressure
High23 °F (Jan 30, 3:00 AM)93% (Jan 30, 5:00 AM)30.83 "Hg (Jan 30, 5:00 AM)
Low-24 °F (Feb 12, 8:00 AM)44% (Feb 12, 3:00 PM)29.22 "Hg (Jan 30, 3:00 AM)
Average2 °F78%30.14 "Hg
* Reported Jan 30 3:00 AM — Feb 14 3:00 AM, Creighton, Weather by CustomWeather, © 2016

Note: Actual official high and low records may vary slightly from our data, if they occured in-between our weather recording intervals... More about our weather records

Advertising

Creighton Weather History for the Previous 24 Hours

 ConditionsComfort  
Time TempWeatherWind HumidityBarometerVisibility
3:00 AM
Sun, Feb 14
9 °FOvercast.10 mph72%29.79 "Hg15 mi
2:46 AM9 °FOvercast.12 mph72%29.79 "Hg15 mi
2:00 AM9 °FLight snow. Overcast.12 mph72%29.81 "Hg15 mi
1:00 AM7 °FLight snow. Overcast.13 mph78%29.83 "Hg15 mi
12:00 AM7 °FLight snow. Overcast.10 mph78%29.85 "Hg15 mi
11:00 PM
Sat, Feb 13
7 °FLight snow. Overcast.14 mph72%29.90 "Hg15 mi
10:00 PM7 °FOvercast.12 mph66%29.93 "Hg15 mi
9:00 PM9 °FOvercast.13 mph61%29.96 "Hg15 mi
8:00 PM9 °FOvercast.14 mph56%29.98 "Hg15 mi
7:00 PM9 °FMostly cloudy.13 mph56%30.00 "Hg15 mi
6:00 PM9 °FOvercast.17 mph56%30.01 "Hg15 mi
5:00 PM7 °FOvercast.20 mph61%30.04 "Hg15 mi
4:00 PM5 °FOvercast.18 mph60%30.06 "Hg15 mi
3:00 PM3 °FPartly sunny.22 mph55%30.10 "Hg15 mi
2:00 PM1 °FPartly sunny.22 mph60%30.14 "Hg15 mi
1:00 PM1 °FScattered clouds.20 mph55%30.18 "Hg15 mi
12:00 PM0 °FScattered clouds.23 mph54%30.22 "Hg15 mi
11:00 AM-4 °FPartly sunny.20 mph59%30.27 "Hg15 mi
10:00 AM-8 °FPartly sunny.17 mph64%30.30 "Hg15 mi
9:00 AM-13 °FMostly cloudy.15 mph69%30.34 "Hg15 mi
8:00 AM-15 °FOvercast.15 mph69%30.37 "Hg15 mi
7:00 AM-17 °FOvercast.12 mph69%30.41 "Hg15 mi
6:00 AM-18 °FPassing clouds.9 mph69%30.43 "Hg15 mi
5:00 AM-18 °FPassing clouds.12 mph69%30.45 "Hg15 mi
4:00 AM-18 °FClear.8 mph69%30.50 "Hg15 mi
Weather by CustomWeather, © 2016

See weather overviewHow to use our weather pages